| time (UTC) | temp F | wind direction | speed MPH | gust MPH | rain 1hr in | rain 24hr in | rain mn in | humidity % | barometer mb |
| 20260504081007 | 37 | 131 | 0.0 | 0.0 | 0.00 | 0.00 | 0.00 | 83 | 991.3 |
| 20260504045007 | 35 | 113 | 0.0 | 0.0 | 0.00 | 0.00 | 0.00 | 86 | 991.3 |
| 20260504044006 | 35 | 113 | 1.0 | 2.0 | 0.00 | 0.00 | 0.00 | 86 | 991.3 |
| 20260504043006 | 35 | 124 | 0.0 | 0.0 | 0.00 | 0.00 | 0.00 | 86 | 991.3 |
| 20260504042006 | 34 | 124 | 0.0 | 0.0 | 0.00 | 0.00 | 0.00 | 87 | 991.3 |
| 20260504035006 | 33 | 124 | 1.0 | 1.0 | 0.00 | 0.00 | 0.00 | 88 | 991.1 |
| 20260504034006 | 33 | 137 | 0.0 | 0.0 | 0.00 | 0.00 | 0.00 | 88 | 991.1 |
| 20260504033006 | 33 | 137 | 0.0 | 0.0 | 0.00 | 0.00 | 0.00 | 88 | 991.0 |
| 20260504032006 | 33 | 137 | 0.0 | 0.0 | 0.00 | 0.00 | 0.00 | 87 | 990.9 |
| 20260504031010 | 33 | 137 | 0.0 | 1.0 | 0.00 | 0.00 | 0.00 | 86 | 991.0 |
| 20260504030006 | 34 | 280 | 0.0 | 0.0 | 0.00 | 0.00 | 0.00 | 86 | 990.9 |
| 20260504025006 | 34 | 280 | 0.0 | 1.0 | 0.00 | 0.00 | 0.00 | 86 | 990.9 |
| 20260504024006 | 35 | 275 | 0.0 | 2.0 | 0.00 | 0.00 | 0.00 | 85 | 990.9 |
| 20260504023006 | 35 | 284 | 0.0 | 1.0 | 0.00 | 0.00 | 0.00 | 84 | 990.9 |
| 20260504022006 | 35 | 292 | 0.0 | 1.0 | 0.00 | 0.00 | 0.00 | 84 | 990.9 |
| 20260504021006 | 36 | 301 | 0.0 | 0.0 | 0.00 | 0.00 | 0.00 | 83 | 990.8 |
| 20260504020006 | 36 | 301 | 0.0 | 0.0 | 0.00 | 0.00 | 0.00 | 82 | 990.7 |
| 20260504015007 | 37 | 301 | 0.0 | 1.0 | 0.00 | 0.00 | 0.00 | 82 | 990.6 |
| 20260504013006 | 38 | 291 | 0.0 | 1.0 | 0.00 | 0.00 | 0.00 | 80 | 990.4 |
| 20260504012005 | 38 | 284 | 0.0 | 2.0 | 0.00 | 0.00 | 0.00 | 77 | 990.2 |
| 20260504010005 | 40 | 268 | 0.0 | 1.0 | 0.00 | 0.00 | 0.00 | 74 | 989.8 |
| 20260504005005 | 40 | 277 | 1.0 | 2.0 | 0.00 | 0.00 | 0.00 | 71 | 989.7 |
| 20260504004006 | 41 | 278 | 1.0 | 2.0 | 0.00 | 0.00 | 0.00 | 72 | 989.5 |
| 20260504003009 | 42 | 283 | 1.0 | 1.0 | 0.00 | 0.00 | 0.00 | 69 | 989.5 |
| 20260504001005 | 43 | 269 | 0.0 | 0.0 | 0.00 | 0.00 | 0.00 | 66 | 989.3 |
| 20260504000005 | 45 | 269 | 0.0 | 0.0 | 0.00 | 0.00 | 0.00 | 68 | 989.1 |
| 20260503235005 | 46 | 269 | 0.0 | 0.0 | 0.00 | 0.00 | 0.00 | 61 | 989.1 |
| 20260503234005 | 48 | 269 | 0.0 | 1.0 | 0.00 | 0.00 | 0.00 | 52 | 989.1 |
| 20260503232006 | 50 | 293 | 1.0 | 2.0 | 0.00 | 0.00 | 0.00 | 41 | 988.9 |
| 20260503231006 | 51 | 307 | 3.0 | 5.0 | 0.00 | 0.00 | 0.00 | 38 | 988.8 |
| 20260503230006 | 52 | 296 | 2.0 | 5.0 | 0.00 | 0.00 | 0.00 | 37 | 988.9 |
| 20260503225005 | 52 | 292 | 3.0 | 5.0 | 0.00 | 0.00 | 0.00 | 38 | 988.9 |
| 20260503223006 | 53 | 290 | 2.0 | 7.0 | 0.00 | 0.00 | 0.00 | 36 | 988.7 |
| 20260503222005 | 52 | 272 | 3.0 | 7.0 | 0.00 | 0.00 | 0.00 | 38 | 988.8 |
| 20260503221006 | 51 | 264 | 3.0 | 9.0 | 0.00 | 0.00 | 0.00 | 38 | 988.7 |
| 20260503220005 | 51 | 279 | 3.0 | 8.0 | 0.00 | 0.00 | 0.00 | 39 | 988.7 |
| 20260503215005 | 51 | 310 | 3.0 | 6.0 | 0.00 | 0.00 | 0.00 | 41 | 988.6 |
| 20260503214005 | 51 | 306 | 3.0 | 7.0 | 0.00 | 0.00 | 0.00 | 38 | 988.6 |
| 20260503213005 | 51 | 284 | 2.0 | 8.0 | 0.00 | 0.00 | 0.00 | 41 | 988.5 |
| 20260503212005 | 50 | 280 | 3.0 | 7.0 | 0.00 | 0.00 | 0.00 | 40 | 988.5 |
| 20260503211005 | 50 | 320 | 4.0 | 8.0 | 0.00 | 0.00 | 0.00 | 41 | 988.5 |
| 20260503210006 | 50 | 279 | 3.0 | 8.0 | 0.00 | 0.00 | 0.00 | 42 | 988.5 |
| 20260503205005 | 50 | 87 | 5.0 | 8.0 | 0.00 | 0.00 | 0.00 | 40 | 988.5 |
| 20260503204005 | 50 | 284 | 2.0 | 8.0 | 0.00 | 0.00 | 0.00 | 40 | 988.6 |
| 20260503203005 | 50 | 291 | 3.0 | 8.0 | 0.00 | 0.00 | 0.00 | 41 | 988.6 |
| 20260503202010 | 51 | 308 | 5.0 | 12.0 | 0.00 | 0.00 | 0.00 | 38 | 988.5 |
| 20260503201010 | 51 | 298 | 6.0 | 12.0 | 0.00 | 0.00 | 0.00 | 37 | 988.4 |
| 20260503195010 | 50 | 302 | 3.0 | 8.0 | 0.00 | 0.00 | 0.00 | 42 | 988.5 |
| 20260503194010 | 50 | 291 | 5.0 | 9.0 | 0.00 | 0.00 | 0.00 | 40 | 988.5 |
| 20260503193010 | 49 | 295 | 4.0 | 8.0 | 0.00 | 0.00 | 0.00 | 42 | 988.5 |
| 20260503192010 | 50 | 278 | 5.0 | 8.0 | 0.00 | 0.00 | 0.00 | 41 | 988.6 |
| 20260503191010 | 50 | 303 | 5.0 | 10.0 | 0.00 | 0.00 | 0.00 | 40 | 988.5 |
| 20260503190010 | 51 | 276 | 6.0 | 10.0 | 0.00 | 0.00 | 0.00 | 39 | 988.5 |
| 20260503184010 | 50 | 300 | 3.0 | 12.0 | 0.00 | 0.00 | 0.00 | 41 | 988.6 |
| 20260503183009 | 50 | 308 | 7.0 | 12.0 | 0.00 | 0.00 | 0.00 | 42 | 988.6 |
| 20260503182010 | 51 | 290 | 4.0 | 9.0 | 0.00 | 0.00 | 0.00 | 40 | 988.4 |
| 20260503181010 | 51 | 292 | 3.0 | 9.0 | 0.00 | 0.00 | 0.00 | 42 | 988.4 |
| 20260503180009 | 52 | 268 | 2.0 | 8.0 | 0.00 | 0.00 | 0.00 | 41 | 988.4 |
| 20260503175009 | 50 | 265 | 5.0 | 14.0 | 0.00 | 0.00 | 0.00 | 40 | 988.2 |
| 20260503174009 | 50 | 293 | 5.0 | 8.0 | 0.00 | 0.00 | 0.00 | 41 | 988.3 |
| 20260503173009 | 49 | 281 | 3.0 | 9.0 | 0.00 | 0.00 | 0.00 | 43 | 988.4 |
| 20260503172010 | 49 | 303 | 4.0 | 9.0 | 0.00 | 0.00 | 0.00 | 46 | 988.5 |
| 20260503171010 | 49 | 272 | 9.0 | 12.0 | 0.00 | 0.00 | 0.00 | 44 | 988.3 |